Date String (YYYY-MM-DD hh:mm:ss) UTC,Instrument flags,absolute air pressure of the measurement (hPa),sample flow rate (lpm),inlet stack bypass flow (lpm),air temperature of the measurement (°C),ambient temperature measured by the external sensor (°C),aerosol sample conditioner tube jacket temperature (°C),OPC LED temperature (°C),internal box temperature (°C),relative humidity of the measurement (%),span deviation,mass concentration of particles derived from Lorenz-Mie calculation of OPC scattering (μg/m³),mass concentration of particles derived from Lorenz-Mie calculation of OPC scattering (μg/m³),mass concentration of particles derived from Lorenz-Mie calculation of OPC scattering (μg/m³)
DateTimeUTC,F1_M11,P_M11,Q1_M11,Q2_M11,T1_M11,T2_M11,T3_M11,T4_M11,T5_M11,U1_M11,ZSPAN_M11,X0_M11,X2_M11,X1_M11
2024-02-24 22:00:00,SystemResetWarning,0824.7,5.00,000.00,022.5,021.8,000.0,030.6,024.2,05.9,0000.0,0013.83,0003.31,0001.00
2024-02-24 22:01:00,SystemResetWarning,0824.7,5.00,000.00,022.5,021.9,000.0,030.6,024.2,05.9,0000.0,0013.97,0003.25,0000.99
2024-02-24 22:02:00,SystemResetWarning,0824.8,5.00,000.00,022.5,021.8,000.0,030.7,024.3,05.8,0000.0,0013.88,0003.20,0000.99
2024-02-24 22:03:00,SystemResetWarning,0824.7,5.01,000.00,022.5,021.8,000.0,030.7,024.2,05.9,0000.0,0012.81,0003.20,0000.98
2024-02-24 22:04:00,SystemResetWarning,0824.7,5.00,000.00,022.5,021.8,000.0,030.7,024.2,06.0,0000.0,0012.24,0003.19,0000.97
2024-02-24 22:05:00,SystemResetWarning,0824.6,4.99,000.00,022.5,021.8,000.0,030.7,024.3,06.0,0000.0,0012.38,0003.23,0000.96
2024-02-24 22:06:00,SystemResetWarning,0824.7,5.00,000.00,022.6,021.9,000.0,030.7,024.3,06.0,0000.0,0012.27,0003.22,0000.95
2024-02-24 22:07:00,SystemResetWarning,0824.7,5.00,000.00,022.6,021.9,000.0,030.7,024.3,06.0,0000.0,0011.40,0003.17,0000.94
2024-02-24 22:08:00,SystemResetWarning,0824.7,5.00,000.00,022.6,021.9,000.0,030.7,024.3,05.9,0000.0,0011.31,0003.19,0000.92
2024-02-24 22:09:00,SystemResetWarning,0824.8,5.00,000.00,022.6,021.9,000.0,030.7,024.3,05.9,0000.0,0011.46,0003.18,0000.92
2024-02-24 22:10:00,SystemResetWarning,0824.6,5.00,000.00,022.6,021.9,000.0,030.7,024.3,06.0,0000.0,0010.88,0003.13,0000.91
2024-02-24 22:11:00,SystemResetWarning,0824.7,5.00,000.00,022.6,021.9,000.0,030.7,024.3,06.0,0000.0,0010.65,0003.12,0000.90
2024-02-24 22:12:00,SystemResetWarning,0824.7,5.00,000.00,022.6,021.9,000.0,030.7,024.3,06.0,0000.0,0010.31,0003.14,0000.91
2024-02-24 22:13:00,SystemResetWarning,0824.7,5.00,000.00,022.6,021.9,000.0,030.8,024.3,05.9,0000.0,0009.26,0003.13,0000.92
2024-02-24 22:14:00,SystemResetWarning,0824.7,5.01,000.00,022.6,021.9,000.0,030.8,024.3,06.0,0000.0,0009.34,0003.08,0000.91
2024-02-24 22:15:00,SystemResetWarning,0824.7,4.99,000.00,022.6,021.9,000.0,030.8,024.3,05.9,0000.0,0008.64,0003.02,0000.92
2024-02-24 22:16:00,SystemResetWarning,0824.8,5.00,000.00,022.6,021.9,000.0,030.8,024.3,05.9,0000.0,0008.38,0002.96,0000.93
2024-02-24 22:17:00,SystemResetWarning,0824.9,4.99,000.00,022.6,021.9,000.0,030.8,024.3,06.1,0000.0,0008.61,0002.90,0000.94
2024-02-24 22:18:00,SystemResetWarning,0824.9,5.00,000.00,022.6,021.9,000.0,030.8,024.3,06.0,0000.0,0008.71,0003.01,0000.95
2024-02-24 22:19:00,SystemResetWarning,0824.8,5.00,000.00,022.6,021.9,000.0,030.8,024.3,06.2,0000.0,0008.67,0002.97,0000.96
2024-02-24 22:20:00,SystemResetWarning,0824.8,4.99,000.00,022.6,021.9,000.0,030.8,024.3,06.0,0000.0,0008.84,0002.91,0000.97
2024-02-24 22:21:00,SystemResetWarning,0824.7,5.00,000.00,022.6,021.9,000.0,030.8,024.4,05.9,0000.0,0009.88,0002.96,0000.97
2024-02-24 22:22:00,SystemResetWarning,0824.7,5.00,000.00,022.6,021.9,000.0,030.8,024.4,06.0,0000.0,0011.03,0003.01,0000.98
2024-02-24 22:23:00,SystemResetWarning,0824.7,5.00,000.00,022.6,021.9,000.0,030.8,024.4,06.0,0000.0,0011.05,0002.94,0000.98
2024-02-24 22:24:00,SystemResetWarning,0824.6,5.01,000.00,022.6,021.9,000.0,030.8,024.4,06.0,0000.0,0011.07,0002.93,0000.98
2024-02-24 22:25:00,SystemResetWarning,0824.7,5.00,000.00,022.6,021.9,000.0,030.8,024.4,05.9,0000.0,0011.02,0003.07,0000.99
2024-02-24 22:26:00,SystemResetWarning,0824.6,5.00,000.00,022.6,021.9,000.0,030.8,024.3,05.9,0000.0,0011.77,0003.13,0001.01
2024-02-24 22:27:00,SystemResetWarning,0824.6,5.00,000.00,022.6,021.9,000.0,030.9,024.3,05.8,0000.0,0012.18,0003.18,0001.01
2024-02-24 22:28:00,SystemResetWarning,0824.7,5.00,000.00,022.6,021.9,000.0,030.9,024.4,05.8,0000.0,0012.46,0003.15,0001.02
2024-02-24 22:29:00,SystemResetWarning,0824.7,5.00,000.00,022.7,022.0,000.0,030.9,024.4,06.0,0000.0,0012.63,0003.09,0001.02
2024-02-24 22:30:00,SystemResetWarning,0824.5,5.00,000.00,022.7,022.0,000.0,030.9,024.4,05.9,0000.0,0012.78,0003.07,0001.01
2024-02-24 22:31:00,SystemResetWarning,0824.6,5.00,000.00,022.7,022.0,000.0,030.9,024.4,05.9,0000.0,0012.37,0003.08,0001.02
2024-02-24 22:32:00,SystemResetWarning,0824.7,4.99,000.00,022.7,022.0,000.0,030.9,024.4,06.0,0000.0,0011.54,0003.13,0001.03
2024-02-24 22:33:00,SystemResetWarning,0824.6,4.99,000.00,022.7,022.0,000.0,030.9,024.4,06.0,0000.0,0010.59,0003.18,0001.04
2024-02-24 22:34:00,SystemResetWarning,0824.6,5.01,000.00,022.7,022.0,000.0,030.9,024.4,05.9,0000.0,0010.51,0003.19,0001.03
2024-02-24 22:35:00,SystemResetWarning,0824.6,5.00,000.00,022.7,022.0,000.0,030.9,024.4,05.9,0000.0,0011.10,0003.19,0001.02
2024-02-24 22:36:00,SystemResetWarning,0824.6,5.01,000.00,022.7,022.0,000.0,030.9,024.4,05.9,0000.0,0011.39,0003.14,0001.01
2024-02-24 22:37:00,SystemResetWarning,0824.5,4.99,000.00,022.7,022.0,000.0,030.9,024.4,05.9,0000.0,0011.35,0003.16,0001.01
2024-02-24 22:38:00,SystemResetWarning,0824.6,5.00,000.00,022.7,022.0,000.0,030.9,024.4,05.9,0000.0,0010.80,0003.18,0001.01
2024-02-24 22:39:00,SystemResetWarning,0824.7,5.01,000.00,022.7,022.0,000.0,030.9,024.4,06.0,0000.0,0010.46,0003.20,0000.99
2024-02-24 22:40:00,SystemResetWarning,0824.7,5.01,000.00,022.7,022.0,000.0,030.9,024.4,06.0,0000.0,0010.18,0003.22,0000.99
2024-02-24 22:41:00,SystemResetWarning,0824.7,5.00,000.00,022.7,022.0,000.0,030.9,024.4,06.0,0000.0,0010.93,0003.26,0001.00
2024-02-24 22:42:00,SystemResetWarning,0824.3,5.00,000.00,022.7,022.0,000.0,030.9,024.4,05.9,0000.0,0011.30,0003.26,0001.01
2024-02-24 22:43:00,SystemResetWarning,0824.6,5.00,000.00,022.7,022.0,000.0,030.9,024.5,05.8,0000.0,0011.55,0003.21,0001.00
2024-02-24 22:44:00,SystemResetWarning,0824.5,5.00,000.00,022.7,022.0,000.0,030.9,024.5,06.0,0000.0,0011.95,0003.17,0000.99
2024-02-24 22:45:00,SystemResetWarning,0824.5,5.00,000.00,022.7,022.0,000.0,030.9,024.5,05.9,0000.0,0011.87,0003.15,0000.99
2024-02-24 22:46:00,SystemResetWarning,0824.6,5.00,000.00,022.7,022.0,000.0,030.9,024.5,05.8,0000.0,0011.62,0003.19,0000.99
2024-02-24 22:47:00,SystemResetWarning,0824.5,5.00,000.00,022.7,022.0,000.0,030.9,024.4,06.0,0000.0,0011.33,0003.23,0001.00
2024-02-24 22:48:00,SystemResetWarning,0824.4,5.00,000.00,022.8,022.0,000.0,031.0,024.5,05.8,0000.0,0011.62,0003.20,0001.00
2024-02-24 22:49:00,SystemResetWarning,0824.4,5.00,000.00,022.8,022.0,000.0,031.0,024.5,05.8,0000.0,0011.76,0003.16,0001.00
2024-02-24 22:50:00,SystemResetWarning,0824.3,5.01,000.00,022.8,022.0,000.0,031.0,024.5,05.9,0000.0,0011.50,0003.13,0001.00
2024-02-24 22:51:00,SystemResetWarning,0824.4,5.00,000.00,022.8,022.0,000.0,031.0,024.5,05.9,0000.0,0011.34,0003.14,0001.02
2024-02-24 22:52:00,SystemResetWarning,0824.6,5.00,000.00,022.8,022.0,000.0,031.0,024.5,06.0,0000.0,0011.93,0003.14,0001.02
2024-02-24 22:53:00,SystemResetWarning,0824.4,5.01,000.00,022.8,022.0,000.0,031.0,024.5,06.0,0000.0,0011.96,0003.16,0001.03
2024-02-24 22:54:00,SystemResetWarning,0824.4,5.00,000.00,022.8,022.1,000.0,031.0,024.5,05.7,0000.0,0012.60,0003.19,0001.04
2024-02-24 22:55:00,SystemResetWarning,0824.4,5.00,000.00,022.8,022.0,000.0,031.0,024.5,05.9,0000.0,0012.52,0003.19,0001.04
2024-02-24 22:56:00,SystemResetWarning,0824.4,5.00,000.00,022.8,022.1,000.0,031.0,024.5,06.0,0000.0,0012.67,0003.18,0001.04
2024-02-24 22:57:00,SystemResetWarning,0824.3,4.99,000.00,022.8,022.1,000.0,031.0,024.5,05.9,0000.0,0013.28,0003.14,0001.05
2024-02-24 22:58:00,SystemResetWarning,0824.1,5.00,000.00,022.8,022.1,000.0,031.0,024.5,05.8,0000.0,0013.66,0003.13,0001.05
2024-02-24 22:59:00,SystemResetWarning,0824.3,5.00,000.00,022.8,022.1,000.0,031.0,024.5,05.6,0000.0,0012.78,0003.13,0001.06
